STARLINK-5797, 55784

Orbit data source: Space-Track

STARLINK-5797, 55784 is a payload satellite owned by SpaceX/Seattle (US) in LEO that was launched on Fri, 03 Mar 2023 UTC via an FALCON 9 launch vehicle from the Air Force Western Test Range (AFWTR). Payload-class satellites include a variety of spacecraft equipped with specific instruments for various scientific and technological missions. These include communications satellites like Starlink; space stations such as the ISS; scientific satellites like the Hubble; Earth observation satellites from companies like Planet Labs, Umbra, and HawkEye 360; GPS; miniature CubeSats for education and research; and military/defense satellites.

Loading next visibility...
Identifier
55784, 2023-028AV
Orbit
LEO
Country
Flag of USUS
Related business
Manufacturer
SpaceX/Seattle
Mission
Operational Commercial Communications
Bus & Motor
STARLINK, Unknown motor
Mass
305 kg wet, ~290 kg dry
Launch date (UTC)
2023-03-03 (3 years ago)
Launch vehicle
FALCON 9
Launch site
Air Force Western Test Range (AFWTR)
Object type
Payload
Rocket body
Debris
Shape & HBR
Box + 1 Pan, 10.1 m
Radar Cross Section
11.087 m², Large (>1 m²)

Expand to show TLE details & history
Last TLE update: 2 days ago

TLE from 2 days ago
0 STARLINK-5797
1 55784U 23028AV  26171.36279870 -.00000459  00000-0 -30720-4 0  9999
2 55784  70.0013 305.6587 0002787 268.5322  91.5518 14.98329319182401
Epoch: 2026-06-20T08:42Z
TLE epoch observation values (Epoch: 2026-06-20T08:42:25.807Z)
Latitude
-0.00002°
Longitude
-93.52734°
Altitude
574.535 km
Speed
7.574 km/s
True Right ascension
20h 22m 38s
True Declination
0° 00' 00"
Sunlit
Object was in full shadow at epoch
Visualization orbit readout
Latitude
Unknown
Longitude
Unknown
Altitude
Unknown
Speed
Unknown
Apparent Right ascension
Unknown
Apparent Declination
Unknown
Sunlit
N/A
Visualization observer readout
Local Sidereal Time
21:24:44
Azimuth
Unknown
Elevation
Unknown
Doppler factor
Unknown
Orbital elements
Apogee altitude
571.943 km
Perigee altitude
568.07 km
Semi-major axis
6,948.143 km
Eccentricity
0.00028
Inclination
70.0013°
RAAN
305.6587°
Arg. of periapsis
268.5322°
True anomaly
91.58372°
Mean anomaly
91.5518°
Eccentric anomaly
91.56776°
Mean motion
3.74749 °/min
Orbital period
96.06 mins
BSTAR
-0.00003072
Loading maneuver chart data...
Computing Atmospheric mass density...
Loading historical data...
Loading historical data...
Loading historical data...
Loading historical data...
Loading historical data...
Loading historical data...
Loading historical data...

Documentation

Showing up to 5 results
|